Vertical_Velocity
-2 -2 -1 -1 3 -5 4 8 -3 1 2 -3 -0 -5 -1 -4 -0 6 1 -1 -0 -3 0 3 4 2 2 1 -0 1 8 -22 -2 -1 1 0 1 1 2 2 3 2 0 -1 -0 -0 -1 -1 -2
-1 0 -2 -2 3 6 8 -3 3 1 -4 -2 -2 -5 -2 4 -2 -3 -3 -2 -0 3 2 5 5 5 4 5 3 -4 -4 14 -5 -3 0 -0 0 1 -0 1 2 1 1 1 -1 1 2 -0 -1
-2 -0 -1 1 -1 11 14 -2 4 -0 -2 -2 -1 -4 -1 2 0 -0 0 -1 -1 0 -1 2 6 5 3 4 6 8 -3 5 5 1 3 2 -0 1 2 0 1 1 1 -1 -1 -1 -0 2 2
-3 0 -0 -0 7 0 2 4 5 2 -1 1 3 4 2 1 -1 -3 -3 -0 0 0 -1 3 -0 -2 1 8 4 -0 3 -2 -2 -0 1 3 5 3 1 1 1 0 0 1 -0 -3 -2 -0 0
-3 -3 4 1 1 0 -1 -2 0 1 1 2 -0 7 -0 -0 -2 -1 -3 -3 -1 -1 -1 1 -0 -2 1 7 0 1 3 3 3 2 -3 -1 1 0 1 3 3 3 -0 3 2 0 -2 -2 -1
0 -2 2 6 0 -3 -1 -3 -5 -0 0 0 -1 1 -1 -3 -4 -3 -3 -6 -2 -2 -4 -7 -9 -7 -4 -4 1 -4 -7 -0 -0 2 4 -1 1 2 0 -1 0 1 3 -0 1 0 0 -2 1
1 -4 3 -5 1 -2 1 -1 1 -0 -2 3 -1 3 -3 -7 -2 -2 -3 -7 -5 -3 -1 2 4 4 6 0 1 3 8 -3 -7 -1 -0 -3 1 2 2 1 2 1 1 2 1 1 1 0 -1
1 -2 -3 -1 6 8 -5 -1 -2 0 5 2 2 12 10 -4 0 0 -2 1 -1 -1 2 3 3 1 1 4 2 1 5 2 6 0 -1 1 1 -1 -0 -2 -0 2 2 1 1 3 2 2 1
-1 4 6 2 -2 9 2 0 -4 -5 1 -3 -4 1 -2 -4 -1 0 -1 -3 -1 -1 -2 -2 0 2 2 1 -4 2 0 5 3 3 1 3 1 5 1 6 0 -1 1 3 0 -1 -0 0 0
-2 0 7 -4 -5 -1 -5 -3 -1 -1 5 0 -4 -2 -2 -4 -3 -1 1 4 2 -1 -0 -1 -1 1 -1 3 2 0 1 0 -2 -2 -3 -0 1 2 1 5 5 -0 -3 1 2 1 0 0 -1
0 -2 -4 3 0 -2 2 -0 -3 -1 1 -1 -0 12 -5 -1 -1 -2 -1 -0 1 1 2 4 -2 1 3 7 4 3 3 -1 -1 -0 1 3 -0 2 1 2 6 3 2 -0 0 -1 -1 -1 -1
-0 4 2 4 -3 4 -0 -4 -4 -1 -4 -1 -8 -5 -3 -1 -1 1 2 0 0 5 1 2 0 2 1 -4 -0 -2 0 2 0 4 5 -0 -5 -1 3 2 4 3 1 5 3 3 2 -1 -1
-5 -3 -1 -2 -3 -9 -2 -3 -2 -4 -6 -7 -4 -2 -1 -2 -1 -0 -4 -0 1 -0 3 -1 0 1 -0 3 -1 2 7 7 7 6 4 4 4 4 -1 -2 2 4 1 1 2 5 4 0 -0
-4 -2 -1 -0 5 -2 -1 2 -0 -1 -3 -2 -2 1 1 -2 1 0 4 2 2 -1 -6 -5 1 -2 -1 -7 -2 -6 -3 1 1 -1 -0 0 -1 -1 7 10 5 -2 3 4 4 5 5 1 1
-1 -4 2 -2 0 3 -1 -0 1 -2 -2 -3 -1 0 1 -2 -4 -2 -5 -2 -5 -1 -1 1 -1 0 -2 -2 -0 -0 -4 -8 -7 -0 3 2 0 5 6 -6 -5 -2 -3 -3 -0 2 2 6 3
1 -6 -4 -4 1 -6 -2 -9 -1 -1 0 4 0 0 -1 -1 1 1 1 -2 -2 0 -2 2 4 2 1 1 -3 -1 2 -1 1 -2 -3 1 2 2 2 -1 1 2 8 2 2 2 4 -0 2
-4 4 -1 2 -5 3 2 -2 3 -1 -3 -2 2 3 -1 0 3 4 3 3 2 -1 -0 5 0 3 8 5 2 2 0 5 2 1 1 4 2 -1 2 3 5 9 4 -2 -2 3 1 4 3
3 6 6 2 16 4 1 -2 -2 6 4 1 3 3 1 0 -5 -1 1 -0 1 2 -1 3 5 1 -1 -1 2 3 1 -1 0 -0 2 -0 -2 5 2 5 -1 -7 -1 4 -1 -4 1 1 1
-1 -3 -2 3 3 4 2 4 3 -2 0 -2 7 -1 1 3 0 -2 -1 0 6 5 3 -1 -0 2 4 5 1 2 3 4 3 1 -0 2 3 1 2 0 1 9 6 5 4 6 -3 -1 2
-2 -4 -3 -11 -3 -3 -1 -12 -16 -4 -4 8 1 -1 1 -2 -3 -2 1 1 -5 -3 0 2 2 -3 4 2 9 3 0 3 6 3 3 1 4 12 9 4 5 8 4 7 4 2 4 5 -4
1 2 -1 4 -5 -3 9 -9 5 -6 6 3 4 0 -2 1 6 10 6 2 -3 -2 -2 -1 -3 -1 -0 -2 0 3 -1 0 -1 4 3 -2 -5 0 4 3 0 4 3 3 4 6 6 1 8
-4 -3 -3 -4 -1 5 -2 -11 1 9 4 -4 2 4 1 -2 -1 -1 1 2 1 1 -2 1 3 1 0 -1 0 5 5 5 -3 -2 1 2 12 1 1 4 10 16 3 2 4 3 5 -1 6
-10 -10 -4 -4 -3 5 -13 23 11 -9 1 11 -4 -1 1 8 8 -1 -8 -6 -4 -5 -4 -6 -5 0 -2 -6 -6 -0 1 9 3 8 12 -8 12 22 5 -3 -3 2 14 5 -3 2 3 4 0
8 2 4 4 1 10 -3 16 -5 16 -1 2 1 -7 -5 -8 -16 -9 -4 -3 -4 -0 -2 -8 -6 -3 0 0 -5 -5 1 2 13 7 42 1 -4 -11 -9 -33 -15 -14 8 17 -0 -11 3 3 0
-2 3 -4 3 10 -8 -2 -4 -12 16 0 1 -1 -3 -5 -3 -3 -2 -2 -1 -2 -4 1 -5 -13 -9 -10 -6 0 -2 2 6 8 8 -3 -13 -12 15 12 -1 -19 -14 7 1 6 1 -1 9 -2
1 -1 2 3 3 -4 14 -4 14 -4 -8 0 -4 -3 -1 -1 2 1 -0 -2 -3 -4 -4 -0 -2 -0 -5 -4 -3 0 -2 -3 -11 -14 -7 6 3 -0 1 4 10 -9 19 11 -8 -6 -1 -1 5
7 -3 8 4 -6 16 -9 -14 4 -2 1 -3 -0 1 0 -1 -3 0 -2 -8 -5 -5 0 -3 -1 -2 3 -2 -3 -1 -1 4 4 10 3 10 4 2 5 5 19 10 6 -0 2 3 4 -2 -1
-7 20 2 -2 1 -1 -9 -2 -3 11 4 -3 1 4 2 1 0 2 -0 2 -2 -4 -2 -2 1 2 -1 -2 0 -3 3 4 6 1 9 4 11 -3 -1 -3 -5 3 2 9 4 5 2 0 -1
-1 -3 -6 3 14 3 -0 -14 -8 -4 -0 -3 1 3 5 0 1 -6 -2 2 -3 -2 -2 0 -1 6 7 7 -7 0 0 16 16 10 11 10 2 -1 -1 2 5 0 6 10 2 0 3 1 3
-4 -3 7 19 -15 -1 5 -68 -2 -2 -3 1 3 7 0 -7 3 0 2 2 -2 1 -2 0 1 4 -1 21 73 -6 -13 1 -5 2 9 11 2 11 13 5 3 1 4 -0 -3 6 5 6 3
Height
3149 3149 3150 3151 3158 3153 3152 3155 3153 3154 3155 3153 3152 3153 3156 3155 3154 3157 3151 3149 3148 3146 3146 3146 3148 3150 3151 3154 3157 3159 3161 3162 3161 3163 3164 3164 3166 3166 3167 3167 3167 3167 3166 3167 3165 3165 3164 3164 3163
3147 3148 3149 3151 3155 3150 3151 3153 3154 3154 3152 3152 3152 3153 3154 3155 3153 3152 3150 3147 3145 3144 3143 3144 3146 3148 3152 3155 3157 3158 3160 3163 3161 3162 3163 3163 3164 3165 3166 3167 3167 3166 3166 3166 3165 3164 3164 3163 3163
3147 3148 3150 3152 3152 3150 3151 3153 3153 3152 3150 3150 3152 3152 3153 3153 3152 3150 3149 3146 3143 3142 3141 3142 3145 3148 3151 3154 3156 3156 3159 3160 3161 3161 3162 3163 3164 3165 3165 3166 3166 3165 3165 3165 3165 3163 3163 3163 3163
3148 3148 3150 3152 3151 3152 3152 3152 3150 3150 3148 3148 3150 3152 3152 3151 3151 3150 3148 3145 3143 3141 3140 3141 3144 3148 3150 3152 3153 3153 3157 3158 3160 3161 3162 3162 3163 3163 3164 3165 3165 3165 3164 3164 3164 3164 3162 3162 3162
3148 3149 3151 3151 3151 3152 3151 3150 3150 3149 3148 3148 3150 3152 3151 3150 3149 3148 3147 3145 3143 3141 3140 3141 3143 3146 3148 3150 3151 3153 3157 3159 3160 3160 3161 3161 3161 3161 3162 3163 3163 3163 3163 3163 3163 3163 3162 3161 3161
3149 3148 3151 3149 3150 3151 3151 3149 3148 3149 3148 3148 3149 3150 3150 3149 3148 3147 3146 3144 3143 3141 3142 3143 3144 3145 3147 3148 3149 3150 3153 3155 3155 3157 3159 3159 3158 3159 3160 3161 3161 3161 3161 3161 3161 3161 3160 3160 3160
3148 3149 3149 3149 3149 3150 3150 3148 3148 3147 3148 3148 3148 3150 3149 3148 3147 3146 3145 3144 3143 3141 3140 3142 3143 3144 3146 3147 3147 3148 3150 3152 3153 3155 3156 3156 3156 3157 3157 3158 3158 3158 3159 3158 3158 3158 3158 3158 3158
3147 3147 3147 3147 3148 3149 3148 3147 3147 3147 3149 3147 3146 3149 3149 3146 3145 3144 3143 3143 3142 3141 3140 3140 3139 3140 3141 3141 3143 3145 3147 3149 3150 3152 3153 3154 3153 3154 3154 3154 3155 3156 3156 3156 3155 3156 3155 3156 3156
3144 3147 3145 3146 3146 3147 3145 3146 3145 3146 3146 3145 3145 3145 3144 3144 3143 3142 3141 3141 3141 3141 3141 3141 3140 3139 3139 3139 3139 3139 3141 3143 3145 3147 3148 3149 3150 3150 3150 3151 3151 3152 3153 3153 3153 3153 3153 3153 3153
3143 3145 3144 3143 3144 3144 3143 3143 3143 3144 3144 3144 3142 3141 3141 3140 3139 3138 3138 3138 3138 3138 3138 3137 3137 3137 3137 3137 3137 3137 3138 3140 3142 3144 3145 3145 3146 3146 3147 3147 3147 3148 3149 3150 3150 3150 3150 3150 3150
3140 3142 3141 3140 3139 3139 3140 3141 3140 3140 3141 3141 3140 3140 3137 3137 3136 3135 3135 3135 3135 3135 3134 3134 3134 3134 3134 3134 3133 3133 3134 3135 3137 3139 3140 3141 3141 3141 3142 3143 3143 3144 3145 3146 3146 3146 3146 3146 3146
3137 3137 3136 3137 3135 3134 3135 3136 3136 3136 3136 3137 3134 3133 3132 3133 3132 3131 3131 3131 3132 3132 3132 3131 3130 3130 3130 3130 3130 3131 3132 3132 3133 3134 3135 3135 3135 3136 3137 3138 3138 3138 3140 3141 3142 3142 3142 3142 3142
3133 3134 3132 3132 3131 3131 3131 3130 3130 3129 3128 3128 3127 3127 3127 3127 3128 3128 3127 3127 3128 3128 3128 3127 3127 3126 3126 3126 3126 3126 3127 3127 3127 3128 3129 3129 3129 3130 3131 3132 3132 3133 3133 3134 3135 3136 3136 3137 3138
3130 3130 3130 3129 3128 3127 3128 3127 3126 3124 3122 3122 3122 3122 3122 3123 3124 3124 3124 3124 3124 3124 3123 3124 3124 3124 3124 3123 3122 3123 3123 3122 3122 3123 3123 3123 3123 3124 3124 3125 3126 3127 3127 3128 3129 3130 3130 3130 3131
3127 3126 3127 3126 3125 3124 3124 3124 3122 3120 3120 3119 3118 3117 3117 3118 3119 3120 3120 3120 3120 3120 3120 3120 3120 3120 3120 3119 3118 3117 3117 3118 3117 3117 3117 3117 3118 3118 3119 3119 3119 3121 3122 3123 3124 3124 3125 3125 3126
3123 3123 3124 3122 3121 3120 3122 3121 3118 3117 3117 3117 3115 3114 3113 3114 3115 3115 3115 3114 3114 3114 3114 3115 3114 3114 3114 3113 3112 3112 3111 3111 3111 3111 3111 3111 3111 3111 3111 3112 3113 3113 3115 3117 3118 3119 3120 3120 3121
3120 3120 3121 3121 3117 3119 3119 3117 3118 3114 3112 3112 3112 3112 3110 3111 3110 3110 3109 3109 3109 3109 3109 3109 3108 3108 3107 3106 3105 3105 3105 3105 3104 3103 3103 3102 3102 3103 3104 3105 3106 3107 3107 3109 3111 3112 3113 3114 3115
3119 3118 3117 3117 3117 3113 3112 3111 3112 3111 3108 3107 3107 3104 3104 3105 3104 3104 3104 3103 3103 3103 3102 3103 3101 3099 3099 3099 3099 3099 3098 3097 3097 3096 3096 3096 3095 3096 3097 3098 3099 3100 3100 3101 3103 3104 3107 3108 3109
3113 3113 3113 3115 3113 3107 3106 3105 3106 3105 3104 3102 3103 3098 3096 3097 3096 3097 3096 3096 3096 3095 3095 3094 3093 3092 3091 3088 3089 3089 3091 3090 3089 3089 3089 3088 3087 3088 3089 3089 3090 3091 3092 3094 3096 3097 3099 3101 3103
3109 3108 3108 3107 3105 3102 3101 3097 3097 3098 3096 3096 3094 3092 3092 3091 3091 3091 3090 3090 3090 3090 3088 3086 3084 3082 3083 3080 3079 3078 3079 3079 3080 3080 3080 3079 3080 3079 3078 3079 3081 3082 3083 3085 3086 3089 3091 3093 3094
3108 3106 3105 3105 3101 3098 3095 3089 3088 3090 3089 3086 3086 3086 3086 3086 3085 3085 3085 3085 3084 3084 3082 3080 3078 3077 3074 3072 3070 3068 3067 3069 3070 3071 3071 3068 3068 3069 3068 3069 3071 3072 3074 3076 3079 3081 3084 3088 3088
3107 3104 3103 3101 3100 3097 3097 3085 3089 3088 3087 3084 3082 3081 3080 3080 3080 3081 3080 3078 3078 3077 3075 3074 3072 3070 3068 3065 3062 3059 3058 3057 3058 3057 3057 3057 3057 3054 3053 3055 3059 3061 3062 3067 3070 3073 3077 3080 3082
3103 3098 3098 3097 3095 3092 3093 3088 3080 3080 3083 3083 3080 3078 3078 3077 3076 3074 3073 3073 3072 3070 3068 3067 3065 3063 3060 3057 3054 3050 3049 3048 3046 3046 3041 3045 3042 3034 3032 3036 3043 3052 3056 3059 3063 3068 3070 3073 3076
3100 3097 3094 3090 3089 3081 3077 3080 3074 3074 3076 3076 3072 3073 3074 3073 3071 3069 3067 3065 3064 3063 3059 3056 3056 3053 3050 3046 3044 3041 3038 3037 3034 3032 3024 3032 3029 3025 3032 3034 3031 3040 3047 3051 3056 3061 3064 3065 3068
3099 3101 3093 3084 3080 3073 3073 3076 3070 3070 3070 3068 3067 3067 3068 3066 3063 3062 3061 3058 3057 3056 3054 3050 3047 3045 3043 3040 3034 3031 3029 3027 3025 3024 3023 3022 3019 3020 3019 3021 3028 3030 3034 3042 3051 3055 3059 3062 3062
3088 3091 3093 3084 3076 3070 3072 3063 3062 3060 3061 3062 3060 3059 3059 3059 3057 3055 3052 3050 3049 3048 3046 3041 3038 3035 3032 3030 3027 3024 3022 3019 3018 3019 3017 3013 3013 3015 3015 3016 3018 3022 3030 3036 3043 3048 3053 3056 3057
3088 3088 3087 3083 3077 3074 3066 3059 3056 3054 3054 3054 3053 3053 3052 3052 3051 3048 3045 3042 3039 3038 3036 3034 3031 3028 3024 3021 3018 3017 3015 3012 3009 3009 3009 3008 3007 3009 3011 3012 3014 3018 3023 3029 3039 3043 3045 3049 3053
3081 3083 3083 3082 3076 3064 3052 3051 3054 3051 3051 3049 3049 3049 3047 3044 3043 3041 3038 3035 3030 3027 3026 3024 3022 3021 3019 3017 3015 3012 3011 3009 3006 3005 3003 3003 3004 3006 3008 3009 3012 3017 3022 3029 3034 3038 3041 3045 3046
3073 3073 3076 3074 3068 3063 3055 3043 3047 3049 3049 3048 3047 3045 3042 3038 3035 3031 3029 3025 3021 3019 3016 3015 3014 3013 3012 3010 3008 3006 3006 3004 3003 3003 3002 3002 3002 3004 3006 3007 3010 3015 3019 3023 3028 3032 3036 3039 3040
3065 3065 3067 3066 3061 3058 3059 3028 3046 3046 3046 3045 3043 3041 3035 3029 3024 3021 3018 3015 3013 3011 3009 3008 3007 3005 3004 3002 2997 2999 2998 2996 2997 2998 2999 2999 3001 3002 3002 3004 3005 3008 3014 3018 3022 3026 3030 3033 3035